Location: Petruro
(41.0333°N, 14.7833°E)
Time: 11:08:09
(UTC+00:00)

IRS-1D - Pass Details

Date: 20 June 2021
Orbit: 739 x 817 km, 98.6° (Epoch: 27 July)

Event Time Altitude Azimuth Distance (km) Brightness Sun altitude
Rises 02:00:24 0° 6° (N) 3,274 7.7 -13.5°
Reaches altitude 10° 02:02:50 10° 0° (N) 2,330 6.7 -13.1°
Maximum altitude 02:07:40 44° 290° (WNW) 1,054 4.0 -12.5°
Enters shadow 02:11:14 17° 225° (SW) 1,851 4.8 -12.1°
